Location: La Estación
(39.9833°N, 3.9500°W)
Time: 15:44:33
(UTC+00:00)

Cosmos 1758 - Pass Details

Date: 14 June 2025
Orbit: 489 x 512 km, 82.5° (Epoch: 19 July)

Event Time Altitude Azimuth Distance (km) Brightness Sun altitude
Rises 21:18:51 0° 359° (N) 2,597 7.6 -14.4°
Reaches altitude 10° 21:21:04 10° 6° (N) 1,705 6.4 -14.7°
Maximum altitude 21:24:38 44° 79° (E) 695 3.6 -15.1°
Enters shadow 21:25:57 30° 129° (SE) 897 3.8 -15.3°
